TimeEDT,TemperatureF,Dew PointF,Humidity,Sea Level PressureIn,VisibilityMPH,Wind Direction,Wind SpeedMPH,Gust SpeedMPH,PrecipitationIn,Events,Conditions,WindDirDegrees,DateUTC
12:53 AM,34.0,21.0,59,30.37,10.0,East,5.8,-,N/A,,Clear,100,2013-04-04 04:53:00
1:53 AM,36.0,17.1,46,30.35,10.0,East,6.9,-,N/A,,Clear,90,2013-04-04 05:53:00
2:53 AM,34.0,18.0,52,30.35,10.0,East,6.9,-,N/A,,Clear,90,2013-04-04 06:53:00
3:53 AM,33.1,18.0,54,30.32,10.0,ENE,4.6,-,N/A,,Clear,70,2013-04-04 07:53:00
4:53 AM,33.1,18.0,54,30.29,10.0,ENE,4.6,-,N/A,,Clear,60,2013-04-04 08:53:00
5:53 AM,32.0,18.0,56,30.28,10.0,NE,3.5,-,N/A,,Clear,40,2013-04-04 09:53:00
6:53 AM,32.0,18.0,56,30.27,10.0,ENE,5.8,-,N/A,,Clear,60,2013-04-04 10:53:00
7:53 AM,30.0,19.0,64,30.28,10.0,ENE,3.5,-,N/A,,Clear,60,2013-04-04 11:53:00
8:53 AM,34.0,19.0,54,30.27,10.0,ENE,5.8,-,N/A,,Clear,70,2013-04-04 12:53:00
9:53 AM,39.0,18.0,43,30.25,10.0,East,9.2,-,N/A,,Clear,90,2013-04-04 13:53:00
10:53 AM,42.1,19.0,40,30.22,10.0,East,8.1,-,N/A,,Clear,90,2013-04-04 14:53:00
11:53 AM,45.0,17.1,33,30.19,10.0,ESE,6.9,-,N/A,,Clear,120,2013-04-04 15:53:00
12:53 PM,48.9,19.0,31,30.17,10.0,Variable,3.5,-,N/A,,Clear,0,2013-04-04 16:53:00
1:53 PM,51.1,17.1,26,30.13,10.0,Calm,Calm,-,N/A,,Clear,0,2013-04-04 17:53:00
2:53 PM,53.1,17.1,24,30.10,10.0,Calm,Calm,-,N/A,,Clear,0,2013-04-04 18:53:00
3:53 PM,54.0,17.1,23,30.07,10.0,Calm,Calm,-,N/A,,Clear,0,2013-04-04 19:53:00
4:53 PM,55.0,15.1,21,30.05,10.0,Calm,Calm,-,N/A,,Clear,0,2013-04-04 20:53:00
5:53 PM,57.0,14.0,18,30.04,10.0,Calm,Calm,-,N/A,,Clear,0,2013-04-04 21:53:00
6:53 PM,55.9,12.9,18,30.03,10.0,South,3.5,-,N/A,,Clear,190,2013-04-04 22:53:00
7:53 PM,51.1,19.0,28,30.03,10.0,Calm,Calm,-,N/A,,Clear,0,2013-04-04 23:53:00
8:53 PM,43.0,24.1,47,30.03,10.0,Calm,Calm,-,N/A,,Clear,0,2013-04-05 00:53:00
9:53 PM,39.9,24.1,53,30.04,10.0,Calm,Calm,-,N/A,,Clear,0,2013-04-05 01:53:00
10:53 PM,36.0,24.1,62,30.03,10.0,Calm,Calm,-,N/A,,Clear,0,2013-04-05 02:53:00
11:53 PM,33.1,25.0,72,30.02,10.0,Calm,Calm,-,N/A,,Clear,0,2013-04-05 03:53:00